Regional Weather Roundup
Issued by NWS

Home | Current Version | Previous Version | Graphics & Text | Print | Product List | Glossary On
Versions: 1 2 3 4 5 6 7 8 9 10 11 12 13 14 15 16 17 18 19 20 21 22 23 24 25 26 27 28 29 30 31 32 33 34 35 36 37 38 39 40 41 42 43 44 45 46 47 48 49 50
000
ASUS43 KLOT 231200
RWRIL

ILLINOIS REGIONAL WEATHER ROUNDUP
NATIONAL WEATHER SERVICE CHICAGO/ROMEOVILLE IL
700 AM CDT WED APR 23 2014

NOTE: "FAIR" INDICATES FEW OR NO CLOUDS BELOW 12,000 FEET WITH NO
SIGNIFICANT WEATHER AND/OR OBSTRUCTIONS TO VISIBILITY.

* THESE STATIONS ARE NOT UNDER NWS QUALITY CONTROL. THEY ALSO MAY NOT
  REPORT WEATHER SUCH AS PRECIPITATION OR FOG.

ILZ001-002-007-009-015-016-024-231300-
NORTHWEST ILLINOIS

CITY           SKY/WX    TMP DP  RH WIND       PRES   REMARKS
MOLINE         MOCLDY    38  30  73 E6        30.16R WCI  33
6HR MIN TEMP:  32; 6HR MAX TEMP:  46;

STERLING*      CLEAR     34  28  80 E3        30.17R
$$

ILZ003-004-008-010-011-017-018-231300-
NORTH CENTRAL ILLINOIS

CITY           SKY/WX    TMP DP  RH WIND       PRES   REMARKS
ROCKFORD       PTCLDY    34  28  79 NE6       30.18R WCI  29
6HR MIN TEMP:  33; 6HR MAX TEMP:  39;

$$

ILZ005-006-012>014-019>023-231300-
NORTHEAST ILLINOIS

CITY           SKY/WX    TMP DP  RH WIND       PRES   REMARKS
CHICAGO-OHARE  MOSUNNY   36  27  69 NE6       30.16R WCI  31
6HR MIN TEMP:  33; 6HR MAX TEMP:  39;

CHICAGO-MIDWAY MOSUNNY   38  28  67 NE13      30.16R WCI  30
6HR MIN TEMP:  37; 6HR MAX TEMP:  40;

AURORA         CLEAR     32  28  85 N3        30.17R
6HR MIN TEMP:  28; 6HR MAX TEMP:  34;

WAUKEGAN       SUNNY     32  28  85 CALM      30.16R
6HR MIN TEMP:  26; 6HR MAX TEMP:  35;

DUPAGE AIRPORT CLEAR     33  28  81 N5        30.15R WCI  29
6HR MIN TEMP:  28; 6HR MAX TEMP:  36;

WHEELING       SUNNY     36  29  75 N6        30.18R WCI  31
6HR MIN TEMP:  33; 6HR MAX TEMP:  39;

NORTHERLY ISL    N/A     38  28  68 N15         N/A  WCI  29
$$

LMZ740>746-231300-
SOUTHERN LAKE MICHIGAN

STATION/POSITION SKY/WX   TEMP    WIND        PRES    VSBY  WAVE
                          AIR SEA DIR/SP/G                  HT/PER
                          (F)     (DEG/KT/KT) (MB)    (MI)  (FT/S)
WAUKEGAN HARBOR            37      20/ 19/ 22 1022.0F
HARRISON CRIB              36      10/ 18/ 22   N/A
BURNHAM HARBOR             37     360/ 13/ 18   N/A
CALUMET HARBOR             37      10/ 13/ 18 1021.8R
MICHIGAN CITY              36     360/ 20/ 23   N/A
$$

ILZ025>027-034>036-040-047-049-050-058-095>099-231300-
WEST-CENTRAL ILLINOIS

CITY           SKY/WX    TMP DP  RH WIND       PRES   REMARKS
QUINCY         CLEAR     42  33  70 E10       30.11R
$$

ILZ028>032-037-038-041>044-048-051>054-059>061-231300-
CENTRAL ILLINOIS

CITY           SKY/WX    TMP DP  RH WIND       PRES   REMARKS
DECATUR        CLEAR     35  29  78 E8        30.13R WCI  29
PEORIA         CLEAR     40  29  64 E6        30.16R
6HR MIN TEMP:  39; 6HR MAX TEMP:  44;

SPRINGFIELD    CLEAR     41  28  60 E12       30.14R
6HR MIN TEMP:  39; 6HR MAX TEMP:  47;

TAYLORVILLE    NOT AVBL
$$

ILZ033-039-045-046-055>057-062-063-231300-
EAST-CENTRAL ILLINOIS

CITY           SKY/WX    TMP DP  RH WIND       PRES   REMARKS
CHAMPAIGN      CLEAR     39  29  67 NE8       30.14R WCI  33
MATTOON        CLEAR     37  29  72 NE7       30.13R WCI  32
$$

ILZ079-100>102-231300-
SOUTHWEST ILLINOIS

CITY           SKY/WX    TMP DP  RH WIND       PRES   REMARKS
ALTON          CLEAR     43  36  75 E9        30.11R
CAHOKIA*       CLEAR     46  38  73 E8        30.10R
$$

ILZ064>066-069>071-074>076-080>082-084>086-088>090-092>094-231300-
SOUTH-CENTRAL ILLINOIS

CITY           SKY/WX    TMP DP  RH WIND       PRES   REMARKS
CARBONDALE     CLEAR     42  39  89 CALM      30.09R
6HR MIN TEMP:  39; 6HR MAX TEMP:  48;

MARION         PTCLDY    43  37  81 NE6       30.10R
MT. VERNON     CLEAR     45  30  57 NE8       30.11R
$$

ILZ067-068-072-073-078-083-087-091-231300-
SOUTHEAST ILLINOIS

CITY           SKY/WX    TMP DP  RH WIND       PRES   REMARKS
$$

ABBREVIATIONS USED IN REMARKS
   TC - TEMPERATURE IN CELSIUS
  WCI - WIND CHILL INDEX
   HX - HEAT INDEX
  VSB - VISIBILITY
$$




USA.gov is the U.S. government's official web portal to all federal, state and local government web resources and services.